This is the latest recevied weather packets stored in our database for station/object K6TTR. If no packets are shown the sender has not sent any weather packets the latest 10 day(s).
| Time | Temp. | Humidity | Pressure | Rain* | Wind** | Luminosity | Snow |
|---|---|---|---|---|---|---|---|
| 1777578818 | 18.33° C | 32% | 1018.3 hPa | 0 mm | - | 986 W/m² | - |
| 1777578525 | 18.33° C | 32% | 1018.4 hPa | 0 mm | - | 1027 W/m² | - |
| 1777578230 | 18.33° C | 33% | 1018.4 hPa | 0 mm | - | 1074 W/m² | - |
| 1777577915 | 18.89° C | 34% | 1018.5 hPa | 0 mm | - | 216 W/m² | - |
| 1777577620 | 18.89° C | 35% | 1018.5 hPa | 0 mm | - | 789 W/m² | - |
| 1777577323 | 18.33° C | 35% | 1018.5 hPa | 0 mm | - | 1004 W/m² | - |
| 1777577029 | 18.33° C | 36% | 1018.5 hPa | 0 mm | - | 986 W/m² | - |
| 1777576714 | 18.33° C | 38% | 1018.5 hPa | 0 mm | - | 998 W/m² | - |
| 1777576420 | 18.33° C | 39% | 1018.6 hPa | 0 mm | - | 995 W/m² | - |
| 1777576126 | 18.33° C | 36% | 1018.8 hPa | 0 mm | - | 763 W/m² | - |
| 1777575830 | 18.33° C | 30% | 1018.8 hPa | 0 mm | - | 671 W/m² | - |
| 1777575517 | 17.78° C | 30% | 1018.8 hPa | 0 mm | - | 731 W/m² | - |
| 1777575221 | 17.78° C | 30% | 1019 hPa | 0 mm | - | 838 W/m² | - |
| 1777574927 | 17.78° C | 33% | 1019 hPa | 0 mm | - | 817 W/m² | - |
| 1777574612 | 17.78° C | 31% | 1019 hPa | 0 mm | - | 921 W/m² | - |
| 1777574316 | 17.22° C | 33% | 1019.2 hPa | 0 mm | - | 861 W/m² | - |
| 1777574022 | 17.22° C | 32% | 1019.2 hPa | 0 mm | - | 958 W/m² | - |
| 1777573728 | 17.22° C | 34% | 1019.2 hPa | 0 mm | - | 916 W/m² | - |
| 1777573412 | 17.22° C | 33% | 1019.2 hPa | 0 mm | - | 926 W/m² | - |
| 1777573117 | 16.67° C | 35% | 1019.1 hPa | 0 mm | - | 777 W/m² | - |
| 1777572822 | 16.67° C | 34% | 1019.1 hPa | 0 mm | - | 919 W/m² | - |
| 1777572528 | 16.67° C | 35% | 1019.3 hPa | 0 mm | - | 853 W/m² | - |
| 1777572214 | 16.67° C | 34% | 1019.3 hPa | 0 mm | - | 661 W/m² | - |
| 1777571920 | 16.67° C | 35% | 1019.3 hPa | 0 mm | - | 696 W/m² | - |
| 1777571623 | 16.67° C | 37% | 1019.3 hPa | 0 mm | - | 290 W/m² | - |
* Rain latest hour (hover to see other rain measurements)
** Current wind speed in m/s (hover to see current wind gust speed)